Location: Newark
(47.5833°N, 8.1500°E)
Time: 03:28:17
(UTC+00:00)

Vanguard 1 - Pass Details

Date: 04 November 2020
Orbit: 650 x 3833 km, 34.2° (Epoch: 26 November)

Event Time Altitude Azimuth Distance (km) Brightness Sun altitude
Rises 07:04:52 0° 172° (S) 6,018 14.7 6.4°
Reaches altitude 10° 07:11:39 10° 150° (SSE) 5,669 15.3 7.4°
Maximum altitude 07:19:36 14° 124° (ESE) 5,887 17.0 8.5°
Drops below altitude 10° 07:28:46 10° 98° (E) 6,743 15.6 9.8°
Sets 07:38:25 0° 80° (E) 7,977 15.4 11.1°
